Weather History for PAGN - January, 2014

Change the Weather History Date:

Friday, January 3, 2014

  Actual Average (PASI) Record (PASI)
Temperature  
Mean Temperature 34 °F -  
Max Temperature 36 °F 38 °F - (-1)
Min Temperature 32 °F 30 °F - (-1)
Degree Days  
Heating Degree Days 31    
Moisture  
Dew Point 34 °F    
Average Humidity 99    
Maximum Humidity 100    
Minimum Humidity 93    
Precipitation  
Precipitation 0.00 in - - ()
Sea Level Pressure  
Sea Level Pressure 30.32 in    
Wind  
Wind Speed 0 mph (North)    
Max Wind Speed 0 mph    
Max Gust Speed -    
Visibility 6 miles    
Events Fog , Rain    
Averages and records for this station are not official NWS values.
T = Trace of Precipitation, MM = Missing Value Source: NWS Daily Summary

Daily Weather History Graph

Daily Weather History Graph

Search for Another Location

Airport or City:

Trip Planner

Search our weather history database for the weather conditions in past years. The results will help you decide how hot, cold, wet, or windy it might be!

Date:

Astronomy

Jan. 03, 2014 Rise Set
Actual Time 8:39 AM AKST 3:27 PM AKST
Civil Twilight 7:49 AM AKST 4:16 PM AKST
Nautical Twilight 6:58 AM AKST 5:07 PM AKST
Astronomical Twilight 6:11 AM AKST 5:55 PM AKST
Moon 9:27 AM AKST 7:33 PM AKST
Length of Visible Light 8h 27m
Length of Day
6h 48m
Waxing Crescent, 9% of the Moon is Illuminated
Jan 3
Waxing Crescent
Jan 7
First Quarter
Jan 15
Full
Jan 23
Last Quarter
Jan 30
New

Hourly Weather History & Observations

Time (AKST) Temp. Dew Point Humidity Pressure Visibility Wind Dir Wind Speed Gust Speed Precip Events Conditions
12:43 AM 33.8 °F 33.8 °F 100% 30.08 in 10.0 mi Calm Calm - N/A   Overcast
12:56 AM 32.9 °F 32.9 °F 100% 30.10 in 8.0 mi Calm Calm - N/A   Overcast
1:24 AM 33.8 °F 33.8 °F 100% 30.10 in 2.0 mi Calm Calm - N/A   Overcast
1:43 AM 33.8 °F 33.8 °F 100% 30.11 in 10.0 mi Calm Calm - N/A   Overcast
1:56 AM 34.0 °F 34.0 °F 100% 30.13 in 10.0 mi Calm Calm - N/A   Overcast
2:25 AM 33.8 °F 33.8 °F 100% 30.14 in 6.0 mi Calm Calm - N/A   Overcast
2:34 AM 33.8 °F 33.8 °F 100% 30.15 in 10.0 mi Calm Calm - N/A   Overcast
2:45 AM 33.8 °F 33.8 °F 100% 30.16 in 10.0 mi Calm Calm - N/A   Overcast
2:56 AM 33.8 °F 33.8 °F 100% 30.16 in 10.0 mi Calm Calm - N/A   Overcast
3:44 AM 33.8 °F 33.8 °F 100% 30.18 in 10.0 mi Calm Calm - N/A   Overcast
3:56 AM 32.9 °F 32.9 °F 100% 30.20 in 10.0 mi Calm Calm - N/A   Overcast
4:27 AM 33.8 °F 33.8 °F 100% 30.19 in 10.0 mi Calm Calm - N/A   Mostly Cloudy
4:35 AM 33.8 °F 33.8 °F 100% 30.19 in 10.0 mi Calm Calm - N/A   Mostly Cloudy
4:56 AM 32.9 °F 32.9 °F 100% 30.20 in 9.0 mi Calm Calm - N/A   Mostly Cloudy
5:09 AM 33.8 °F 33.8 °F 100% 30.20 in 10.0 mi Calm Calm - N/A   Mostly Cloudy
5:29 AM 33.8 °F 33.8 °F 100% 30.21 in 10.0 mi Calm Calm - N/A   Overcast
5:56 AM 32.9 °F 32.9 °F 100% 30.24 in 10.0 mi Calm Calm - N/A   Overcast
6:06 AM 33.8 °F 33.8 °F 100% 30.23 in 9.0 mi Calm Calm - 0.00 in Rain Light Rain
6:16 AM 33.8 °F 33.8 °F 100% 30.24 in 10.0 mi Calm Calm - 0.00 in   Overcast
6:44 AM 33.8 °F 33.8 °F 100% 30.24 in 10.0 mi Calm Calm - 0.00 in   Overcast
6:56 AM 34.0 °F 32.9 °F 96% 30.26 in 10.0 mi Calm Calm - 0.00 in   Overcast
7:56 AM 34.0 °F 34.0 °F 100% 30.28 in 8.0 mi Calm Calm - 0.00 in Rain Light Rain
8:16 AM 33.8 °F 33.8 °F 100% 30.28 in 7.0 mi Calm Calm - 0.00 in   Overcast
8:56 AM 34.0 °F 34.0 °F 100% 30.31 in 10.0 mi Calm Calm - 0.00 in   Overcast
9:56 AM 34.0 °F 34.0 °F 100% 30.33 in 10.0 mi Calm Calm - 0.00 in   Overcast
10:33 AM 35.6 °F 33.8 °F 93% 30.33 in 4.0 mi Calm Calm - N/A   Overcast
10:38 AM 35.6 °F 33.8 °F 93% 30.33 in 1.8 mi Calm Calm - N/A   Overcast
10:41 AM 35.6 °F 33.8 °F 93% 30.33 in 1.0 mi Calm Calm - N/A   Overcast
10:46 AM 35.6 °F 33.8 °F 93% 30.33 in 0.5 mi Calm Calm - N/A Fog Fog
10:56 AM 34.9 °F 34.9 °F 100% 30.35 in 0.2 mi Calm Calm - N/A Fog Fog
11:04 AM 35.6 °F 35.6 °F 100% 30.34 in 0.2 mi Calm Calm - N/A Fog Fog
11:14 AM 33.8 °F 33.8 °F 100% 30.34 in 0.2 mi Calm Calm - N/A Fog Fog
11:43 AM 35.6 °F 35.6 °F 100% 30.35 in 0.5 mi Calm Calm - N/A Fog Fog
11:49 AM 35.6 °F 35.6 °F 100% 30.35 in 1.0 mi Calm Calm - N/A   Overcast
11:56 AM 35.6 °F 35.6 °F 100% 30.36 in 2.0 mi Calm Calm - N/A   Overcast
12:07 PM 35.6 °F 35.6 °F 100% 30.36 in 5.0 mi Calm Calm - N/A   Overcast
12:44 PM 35.6 °F 35.6 °F 100% 30.36 in 10.0 mi Calm Calm - 0.00 in Rain Light Rain
12:56 PM 34.9 °F 34.9 °F 100% 30.38 in 10.0 mi Calm Calm - 0.00 in   Overcast
1:28 PM 35.6 °F 35.6 °F 100% 30.37 in 10.0 mi Calm Calm - 0.00 in   Overcast
1:43 PM 35.6 °F 35.6 °F 100% 30.37 in 10.0 mi Calm Calm - 0.00 in   Overcast
1:56 PM 36.0 °F 34.9 °F 96% 30.39 in 10.0 mi Calm Calm - 0.00 in   Overcast
2:08 PM 35.6 °F 35.6 °F 100% 30.38 in 10.0 mi Calm Calm - N/A   Overcast
2:43 PM 35.6 °F 35.6 °F 100% 30.38 in 10.0 mi Calm Calm - 0.00 in   Overcast
2:56 PM 35.6 °F 35.6 °F 100% 30.38 in 10.0 mi Calm Calm - N/A   Overcast
3:56 PM 34.9 °F 34.0 °F 97% 30.40 in 10.0 mi Calm Calm - N/A   Overcast
4:10 PM 35.6 °F 35.6 °F 100% 30.39 in 10.0 mi Calm Calm - N/A   Overcast
4:31 PM 33.8 °F 33.8 °F 100% 30.40 in 10.0 mi Calm Calm - N/A   Overcast
4:56 PM 34.0 °F 34.0 °F 100% 30.41 in 10.0 mi Calm Calm - N/A   Overcast
5:24 PM 33.8 °F 33.8 °F 100% 30.41 in 10.0 mi Calm Calm - N/A   Overcast
5:56 PM 35.6 °F 33.8 °F 93% 30.41 in 10.0 mi Calm Calm - N/A   Overcast
6:21 PM 35.6 °F 35.6 °F 100% 30.40 in 10.0 mi Calm Calm - N/A   Overcast
6:56 PM 34.0 °F 34.0 °F 100% 30.40 in 10.0 mi Calm Calm - N/A   Overcast
7:27 PM 33.8 °F 33.8 °F 100% 30.39 in 1.8 mi Calm Calm - N/A   Overcast
7:33 PM 33.8 °F 33.8 °F 100% 30.39 in 1.0 mi Calm Calm - N/A   Overcast
7:40 PM 33.8 °F 33.8 °F 100% 30.39 in 1.5 mi Calm Calm - N/A   Overcast
7:47 PM 33.8 °F 33.8 °F 100% 30.40 in 3.0 mi Calm Calm - N/A   Overcast
7:56 PM 34.0 °F 34.0 °F 100% 30.41 in 6.0 mi Calm Calm - N/A   Overcast
8:11 PM 33.8 °F 33.8 °F 100% 30.40 in 1.8 mi Calm Calm - N/A   Overcast
8:19 PM 33.8 °F 33.8 °F 100% 30.40 in 1.0 mi Calm Calm - N/A   Overcast
8:32 PM 33.8 °F 33.8 °F 100% 30.40 in 0.8 mi Calm Calm - N/A   Overcast
8:40 PM 33.8 °F 33.8 °F 100% 30.41 in 0.5 mi Calm Calm - N/A Fog Fog
8:56 PM 34.0 °F 34.0 °F 100% 30.42 in 0.5 mi Calm Calm - N/A Fog Fog
9:06 PM 33.8 °F 33.8 °F 100% 30.41 in 0.8 mi Calm Calm - N/A   Overcast
9:12 PM 35.6 °F 35.6 °F 100% 30.41 in 1.2 mi Calm Calm - N/A   Overcast
9:17 PM 33.8 °F 33.8 °F 100% 30.42 in 2.0 mi Calm Calm - N/A   Overcast
9:25 PM 33.8 °F 33.8 °F 100% 30.42 in 5.0 mi Calm Calm - N/A   Overcast
9:36 PM 33.8 °F 33.8 °F 100% 30.42 in 1.8 mi Calm Calm - N/A   Overcast
9:45 PM 35.6 °F 35.6 °F 100% 30.42 in 3.0 mi Calm Calm - N/A   Overcast
9:56 PM 34.0 °F 34.0 °F 100% 30.43 in 5.0 mi Calm Calm - N/A   Overcast
10:56 PM 34.0 °F 34.0 °F 100% 30.44 in 6.0 mi Calm Calm - N/A   Overcast
11:22 PM 33.8 °F 33.8 °F 100% 30.43 in 1.5 mi Calm Calm - N/A   Overcast
11:25 PM 33.8 °F 33.8 °F 100% 30.43 in 0.8 mi Calm Calm - N/A   Overcast
11:33 PM 33.8 °F 33.8 °F 100% 30.43 in 0.5 mi Calm Calm - N/A Fog Fog
11:56 PM 34.0 °F 34.0 °F 100% 30.45 in 0.2 mi Calm Calm - N/A Fog Fog